Regional Weather Roundup
Issued by NWS

Home | Current Version | Previous Version | Graphics & Text | Print | Product List | Glossary On
Versions: 1 2 3 4 5 6 7 8 9 10 11 12 13 14 15 16 17 18 19 20 21 22 23 24 25 26 27 28 29 30 31 32 33 34 35 36 37 38 39 40 41 42 43 44 45 46 47 48 49 50
614
ASUS45 KPSR 070210
RWRAZ

ARIZONA HOURLY REGIONAL WEATHER ROUNDUP
NATIONAL WEATHER SERVICE PHOENIX AZ
700 PM MST TUE DEC 06 2016

NOTE: FAIR INDICATES FEW OR NO CLOUDS BELOW 12,000 FEET WITH NO
SIGNIFICANT WEATHER AND/OR OBSTRUCTIONS TO VISIBILITY.

AZZ001>003-036-070300-
NORTHWEST ARIZONA

CITY           SKY/WX    TMP DP  RH WIND       PRES   REMARKS
BULLHEAD CITY  MOCLDY    63  30  29 S5        29.81R
KINGMAN        PTCLDY    48  13  24 SW13      29.84R
$$

AZZ004>008-015-016-018-070300-
NORTH CENTRAL ARIZONA

CITY           SKY/WX    TMP DP  RH WIND       PRES   REMARKS
GRAND CANYON   PTCLDY    34  22  61 SW13      29.87R WCI  25
PRESCOTT       MOCLDY    41  34  76 S9        29.91R
FLAGSTAFF      PTCLDY    32  27  81 SW17G23   29.88R WCI  21
PAYSON         MOCLDY    41  32  70 CALM      29.96S
PAGE           CLEAR     51  11  20 SW8       29.73R
$$

AZZ009>014-017-070300-
NORTHEAST ARIZONA

CITY           SKY/WX    TMP DP  RH WIND       PRES   REMARKS
WINSLOW        PTCLDY    45  25  45 SW14      29.86R
SAINT JOHNS    PTCLDY    42  24  49 SW13      29.87R
WINDOW ROCK    PTCLDY    39  21  48 SW17G25   29.83R WCI  30
SHOW LOW       PTCLDY    37  23  56 S23G29    29.92S WCI  26
$$

AZZ023-070300-
GREATER PHOENIX AREA

CITY           SKY/WX    TMP DP  RH WIND       PRES   REMARKS
PHOENIX        MOCLDY    62  45  53 NE7       29.86S
BUCKEYE        PTCLDY    55  43  62 NE7       29.88S
GLENDALE       PTCLDY    59  45  58 NE6       29.89R
LUKE AFB       MOCLDY    58  45  61 CALM      29.87R
DEER VALLEY    MOCLDY    56  45  66 E6        29.88R
SCOTTSDALE     MOCLDY    59  45  59 N3        29.89S
MESA-FALCON    MOCLDY   N/A N/A N/A N7        29.86R
MESA-GATEWAY   CLEAR     57  37  47 N5        29.89R
CHANDLER       PTCLDY    59  41  51 N8        29.88R
$$

AZZ027-028-070300-
SOUTHWEST MARICOPA COUNTY AND PINAL COUNTY

CITY           SKY/WX    TMP DP  RH WIND       PRES   REMARKS
CASA GRANDE    NOT AVBL
GILA BEND      PTCLDY    60  43  52 S7        29.86R
$$

AZZ503-504-507>509-070300-
SOUTHEAST ARIZONA

CITY           SKY/WX    TMP DP  RH WIND       PRES   REMARKS
TUCSON         PTCLDY    60  29  30 CALM      29.93R
DAVIS-MONTHAN  PTCLDY    59  28  30 VRB3      29.92R
RYAN FIELD     CLEAR     61  32  33 S7        29.93R
NOGALES        CLEAR     53  34  48 S6        29.97R
SIERRA VISTA   CLEAR     53  31  43 SW13      29.99R
DOUGLAS        CLEAR     54  29  38 W10       29.97R
SAFFORD        CLEAR     48  25  40 N7        29.90R
$$

AZZ020-021-025-026-031-070300-
SOUTHWEST ARIZONA

CITY           SKY/WX    TMP DP  RH WIND       PRES   REMARKS
YUMA           CLOUDY    65  45  48 S7        29.86R
$$

CAZ031-033-041-043-047-048-061-070300-
SOUTHERN CALIFORNIA

CITY           SKY/WX    TMP DP  RH WIND       PRES   REMARKS
DOWNTOWN L.A.  CLOUDY    58  51  78 W3        29.98R
L.A. AIRPORT   CLOUDY    58  53  84 W9        29.98R
SAN DIEGO      MOCLDY    60  49  66 SW6       30.01R
BURBANK        CLOUDY    57  45  64 SE5       29.97R
ONTARIO        CLOUDY    56  48  74 SW14      29.97R
RIVERSIDE      CLOUDY    57  49  74 W3        29.97R
PALM SPRINGS   CLOUDY    63  40  42 VRB7      29.85R
EL CENTRO NAS  CLOUDY    65  40  39 W16       29.88R
IMPERIAL       CLOUDY    65  44  46 NW8       29.86R
BLYTHE         MOCLDY    64  39  39 SW9       29.83R
NEEDLES        MOCLDY    63  32  31 SW12      29.82R
$$

NVZ020-UTZ003-070300-
SOUTHERN NEVADA-UTAH

CITY           SKY/WX    TMP DP  RH WIND       PRES   REMARKS
LAS VEGAS      PTCLDY    58  15  18 S7        29.75R
SALT LAKE CITY PTCLDY    26  20  77 N6        29.87R WCI  19
$$

NMZ009-TXZ055-070300-
NEW MEXICO-WEST TEXAS

CITY           SKY/WX    TMP DP  RH WIND       PRES   REMARKS
ALBUQUERQUE    MOCLDY    39  14  36 S5        29.84
EL PASO        PTCLDY    53  31  42 S6        29.91R
$$


........................KEY........................
SKY/WX - SKY CONDITION/WEATHER
TMP    - TEMPERATURE IN FAHRENHEIT
DP     - DEW POINT IN FAHRENHEIT
RH     - RELATIVE HUMIDITY IN PERCENT
WIND   - DIRECTION AND SPEED IN MILES PER HOUR (MPH)
VRB    - VARIABLE WIND DIRECTION
PRES   - MEAN SEA LEVEL PRESSURE IN INCHES OF MERCURY
         F - FALLING PRESSURE   R - RISING PRESSURE
         S - STEADY PRESSURE
VSB    - VISIBILITY IN MILES
HX     - HEAT INDEX IN FAHRENHEIT
WCI    - WIND CHILL INDEX IN FAHRENHEIT
TC     - TEMPERATURE IN CELSIUS WHICH IS ALSO KNOWN AS
         TEMPERATURE IN CENTIGRADE
AFB    - AIR FORCE BASE
         LUKE AFB IS LUKE AIR FORCE BASE
         DAVIS-MONTHAN IS DAVIS-MONTHAN AIR FORCE BASE
NAS    - NAVAL AIR STATION
         EL CENTRO NAS IS EL CENTRO NAVAL AIR STATION
N/A    - NOT AVAILABLE





USA.gov is the U.S. government's official web portal to all federal, state and local government web resources and services.